Regional Weather Roundup
Issued by NWS

Home | Current Version | Previous Version | Text Only | Print | Product List | Glossary On
Versions: 1 2 3 4 5 6 7 8 9 10 11 12 13 14 15 16 17 18 19 20 21 22 23 24 25 26 27 28 29 30 31 32 33 34 35 36 37 38 39 40 41 42 43 44 45 46 47 48 49 50
000
ASUS43 KDMX 081408
RWRIA

WEATHER ROUNDUP FOR IOWA
NATIONAL WEATHER SERVICE DES MOINES IA
800 AM CST MON FEB 08 2016

NOTE: "FAIR" INDICATES FEW OR NO CLOUDS BELOW 12,000 FEET WITH NO
SIGNIFICANT WEATHER AND/OR OBSTRUCTIONS TO VISIBILITY.

* - THESE STATIONS ARE NOT NWS STATIONS...THUS NOT UNDER NWS
QUALITY CONTROL.  THEY ALSO DO NOT REPORT WEATHER SUCH
AS PRECIPITATION OR FOG.

IAZ001>003-012>014-020>022-031>034-043>046-081500-
   NORTHWEST IOWA

CITY           SKY/WX    TMP DP  RH WIND       PRES   REMARKS
CARROLL *      CLOUDY    18  12  79 N35G45    29.95S WCI  -3
CHEROKEE *     CLOUDY    18  12  79 N22G39    30.00S HAZE    WCI   0
DENISON *      SNOW      19  16  86 N26G33    29.98R VSB 1/2 WCI   1
LE MARS *      SNOW      21  21 100 N29G40    30.06R VSB 1/2 WCI   3
ORANGE CITY *  CLOUDY    18  16  93 N17G28    30.02R WCI   2
SHELDON *      SNOW      16  14  93 N33G40    29.99R VSB 1/2 WCI  -5
SIOUX CITY     FLURRIES  26  16  65 N36G48    30.04R WCI   8
SPENCER        LGT SNOW  15   9  76 NW29G39   29.97R WCI  -5
STORM LAKE *   FLURRIES  16  12  86 NW32G39   29.96R WCI  -5
$$

IAZ055>058-069>071-079>083-090>094-081500-
   SOUTHWEST IOWA

CITY           SKY/WX    TMP DP  RH WIND       PRES   REMARKS
ATLANTIC *     LGT SNOW  21  18  86 N18G29    29.99R VSB 1   WCI   6
AUDUBON *      CLOUDY    18  14  86 NW24G36   29.98R WCI   0
CLARINDA *     LGT SNOW  25  19  80 NW23G33   30.03S WCI  10
COUNCIL BLFS * MIX PCPN  27  18  69 NW28G40   30.01R WCI  11
CRESTON *      FLURRIES  19  12  73 NW37G47   29.95S WCI  -1
HARLAN  *      SNOW      21  19  93 NW30G38   30.02R VSB 1/2 WCI   3
LAMONI         FLURRIES  21  14  74 NW21G29   29.93R WCI   5
RED OAK *      LGT SNOW  25  21  86 N17G25    30.02R WCI  11
SHENANDOAH *   CLOUDY    27  21  80 N20G32    30.04R WCI  13
$$

IAZ047>049-059>061-072>074-084-081500-
   CENTRAL IOWA

CITY           SKY/WX    TMP DP  RH WIND       PRES   REMARKS
AMES           SNOW      15  11  83 NW28G35   29.90S VSB 1/2 WCI  -5
ANKENY *       LGT SNOW  16  12  86 NW24G32   29.92R VSB 1   WCI  -3
BOONE *        LGT SNOW  14  10  85 NW23G32   29.90R VSB 3/4 WCI  -5
CHARITON *     LGT SNOW  18  12  79 NW24G37   29.90R WCI   0
DES MOINES     LGT SNOW  18  10  71 NW26G36   29.91S WCI  -1
GRINNELL*      FLURRIES  16  10  79 NW21G32   29.85R WCI  -2
KNOXVILLE *    FLURRIES  18   9  68 NW30G40   29.88R WCI  -2
MARSHALLTOWN   CLOUDY    14   8  77 NW28G36   29.85R WCI  -6
NEWTON *       LGT SNOW  16  12  86 NW24G31   29.87R WCI  -3
PELLA *        LGT SNOW  16  12  86 NW24G30   29.90R WCI  -3
$$

IAZ004>006-015-016-023>025-035-036-081500-
   NORTH CENTRAL IOWA

CITY           SKY/WX    TMP DP  RH WIND       PRES   REMARKS
ALGONA *       SNOW      14  10  85 N31G46    29.89R VSB 1/2 WCI  -7
CLARION *      CLOUDY    12   7  79 N29G44    29.88R HAZE    WCI  -9
ESTHERVILLE    LGT SNOW  12   9  87 NW33G41   29.92R VSB 3/4 WCI -10
FORT DODGE *   CLOUDY    14   9  79 N18G29    29.92R WCI  -3
MASON CITY     SNOW      11   7  84 NW29G37   29.85R VSB 1/2 WCI -11
FOREST CITY *  LGT SNOW  12   9  85 NW25G36   29.85R VSB 1   WCI  -8
WEBSTER CITY * SNOW      14  10  85 NW41      29.88S VSB 0   WCI -10
IOWA FALLS *     N/A     14  10  86 NW25G31   29.87R WCI  -6
$$

IAZ007>011-017>019-026>030-037>042-050>054-066-081500-
   NORTHEAST IOWA

CITY           SKY/WX    TMP DP  RH WIND       PRES   REMARKS
CEDAR RAPIDS   LGT SNOW  16  12  84 NW24      29.78S FOG     WCI  -2
CHARLES CITY * LGT SNOW  12   9  85 NW30G37   29.81R VSB 1   WCI  -9
CLINTON *      FLURRIES  19  14  81 NW17      29.74R WCI   4
DECORAH *      CLOUDY    14   9  79 NW17G29   29.75R WCI  -3
DUBUQUE        LGT SNOW  17  12  80 NW13G24   29.71S WCI   4
MONTICELLO *   FLURRIES  18  12  79 NW16      29.76R WCI   3
OELWEIN *      LGT SNOW  14  10  85 NW23      29.78R WCI  -5
WATERLOO       LGT SNOW  14   8  77 NW23      29.81S WCI  -5
$$

IAZ064-065-067-068-078-081500-
   EAST CENTRAL IOWA

CITY           SKY/WX    TMP DP  RH WIND       PRES   REMARKS
DAVENPORT      FLURRIES  19  12  74 NW17G24   29.76R WCI   4
IOWA CITY      LGT SNOW  18  11  74 NW20G26   29.82R WCI   2
MT. PLEASANT * FLURRIES  21  14  73 W14G24    29.82R WCI   8
MUSCATINE *    FLURRIES  21  14  73 NW21G29   29.81R WCI   6
QUAD CITIES    LGT SNOW  20  13  74 W13       29.76R WCI   7
$$

IAZ062-063-075>077-085>089-095>099-081500-
   SOUTHEAST IOWA

CITY           SKY/WX    TMP DP  RH WIND       PRES   REMARKS
BURLINGTON     LGT SNOW  20  14  77 NW15G26   29.79S WCI   6
FAIRFIELD *    FLURRIES  18   9  68 NW22G32   29.83S WCI   0
FORT MADISON * LGT SNOW  19  12  73 W22G30    29.82S WCI   3
KEOKUK *       FLURRIES  21  16  79 NW10G21   29.83R WCI  10
OSKALOOSA *    LGT SNOW  16  12  86 NW25G31   29.87R WCI  -3
CENTERVILLE *    N/A    N/A N/A N/A MISG        N/A
OTTUMWA        FLURRIES  16  10  77 NW30G40   29.87R WCI  -4
WASHINGTON *   LGT SNOW  18  12  79 NW23      29.83R WCI   0
$$

ABBREVIATIONS USED IN REMARKS
   TC - TEMPERATURES IN CELSIUS
  WCI - WIND CHILL INDEX
   HX - HEAT INDEX
  VSB - VISIBILITY
$$




USA.gov is the U.S. government's official web portal to all federal, state and local government web resources and services.